Dewpoint
71 71 70 69 70 69 68 67 56 61 59 53 53 56 57 61 63 61 63 64 61 65 65 61 59 60 59 58 58 61 63 57 58 53 53 65 70 70 71 71 71 71 72 73 74 74 75 74 76 76 76 76 76 76 76 75 76 76 76 76 76 76 76 76 76 76 76 76 76 76 75 75 75 75 74 74 74 74 74 74 75 74 75 74 74 74 74 74 75 75 74 74 75 74 73 73 73
70 70 70 69 69 69 63 65 58 55 56 53 53 56 59 63 61 60 62 63 63 63 62 63 62 64 65 63 61 60 61 64 65 63 66 68 70 70 71 72 71 71 72 73 73 74 75 75 76 76 76 76 76 76 76 76 76 76 76 76 76 76 76 76 76 76 75 76 76 76 76 75 75 75 75 74 74 74 74 74 74 75 75 75 75 74 74 74 74 74 73 74 74 74 74 74 73
70 70 68 69 69 67 66 65 54 55 52 50 53 56 61 60 61 62 63 65 66 65 63 63 64 63 64 63 61 61 59 65 64 65 67 69 68 70 71 72 72 72 72 73 73 74 75 76 76 76 76 76 75 76 76 76 76 76 76 76 76 76 76 76 76 75 75 76 76 76 75 75 75 75 74 75 74 74 74 74 75 75 75 75 74 74 74 74 74 74 74 74 74 74 75 73 73
70 69 68 68 64 66 62 60 56 54 52 52 54 59 60 62 61 63 66 66 65 63 63 62 62 66 64 61 62 63 62 62 64 65 66 67 68 70 71 72 73 72 72 73 73 73 75 76 76 77 76 76 75 75 76 76 76 76 76 76 76 76 76 76 75 74 75 75 75 76 76 75 75 75 74 74 74 74 74 74 74 74 75 74 73 73 73 74 74 75 74 74 74 74 74 73 74
70 70 70 68 64 61 60 59 57 58 51 55 53 59 61 62 63 64 65 65 63 62 64 64 63 66 66 64 63 62 62 64 65 66 66 68 70 70 71 72 72 72 72 73 73 73 75 77 77 76 76 76 76 76 76 76 76 76 76 76 76 76 76 76 75 75 75 76 76 76 76 75 75 75 74 74 73 74 74 74 74 74 73 74 74 73 74 74 74 75 74 74 74 74 74 74 74
70 69 70 69 63 67 62 57 56 55 54 58 56 59 61 64 63 64 65 65 65 64 63 63 62 62 63 65 65 62 64 61 65 66 66 68 70 71 71 72 71 71 72 74 73 75 75 76 76 76 76 76 76 76 77 76 76 76 76 76 76 76 76 75 75 75 75 75 75 75 75 75 75 74 74 74 74 73 72 73 73 74 74 73 74 74 74 74 74 74 75 74 73 74 73 73 74
68 68 68 67 66 66 57 55 54 54 55 59 57 59 62 64 63 65 65 63 64 65 66 63 63 62 62 64 64 65 67 65 65 66 67 69 70 71 71 71 72 72 73 74 74 74 74 76 76 76 76 76 76 77 76 76 76 76 76 76 76 76 75 76 75 75 75 75 75 75 75 75 75 74 74 74 74 73 73 73 73 74 74 73 74 74 74 74 74 74 74 73 72 73 73 74 74
70 68 65 61 59 60 57 56 56 57 57 60 61 60 63 65 65 64 62 61 62 62 64 64 64 63 62 64 62 67 67 66 66 69 69 70 71 71 71 71 71 71 73 74 74 74 76 76 76 76 76 76 77 76 76 76 76 76 76 76 75 76 76 75 75 76 75 75 75 75 75 75 75 74 74 74 74 74 74 73 74 73 74 73 74 73 74 74 74 74 73 73 72 72 71 74 74
69 67 67 63 58 59 56 55 55 58 58 61 61 64 63 66 65 64 63 63 64 64 63 63 62 59 62 63 64 67 68 69 69 70 69 70 70 71 71 71 71 71 72 73 73 74 74 76 76 76 76 77 77 76 76 76 76 75 75 75 76 76 75 75 75 75 75 75 75 75 75 75 74 74 75 74 74 74 74 74 74 74 74 74 74 75 75 74 74 74 74 73 73 73 73 73 73
67 67 61 60 59 54 54 54 55 58 58 63 62 63 64 65 65 65 63 62 63 64 64 65 62 62 63 62 64 66 67 69 69 69 69 70 70 71 71 71 71 71 71 72 73 73 74 76 75 76 76 76 76 76 76 76 75 75 75 75 76 75 75 75 75 75 74 74 74 74 75 75 75 74 74 74 74 75 75 75 75 75 73 74 75 75 75 74 75 73 73 73 72 73 74 73 73
65 66 66 59 55 54 54 54 56 57 60 62 63 66 65 66 65 63 63 64 65 63 63 63 63 62 62 63 66 69 69 69 68 67 69 70 71 71 71 72 71 71 71 72 72 73 74 75 75 76 76 76 76 76 76 76 75 75 75 75 75 75 75 76 75 75 74 74 75 75 75 75 75 75 75 75 75 74 74 74 74 74 74 75 74 75 75 75 74 74 74 73 73 73 73 73 72
62 61 62 57 55 54 54 55 56 58 61 61 62 65 67 66 65 63 63 62 63 63 62 63 61 63 62 62 65 67 68 68 68 68 69 70 70 70 71 71 71 71 71 72 73 73 75 76 75 75 75 75 75 76 76 75 75 75 75 75 75 75 76 75 74 74 74 74 75 75 75 75 75 75 75 74 75 75 75 75 75 75 74 74 75 75 75 74 74 74 74 74 73 73 73 73 73
63 63 60 57 56 56 56 56 57 59 60 61 63 65 68 66 64 64 64 63 62 62 61 65 63 63 60 62 67 67 66 67 68 68 69 69 70 71 71 71 71 71 72 73 73 73 74 75 75 75 75 75 75 76 75 75 75 75 75 75 75 75 75 75 75 75 74 74 75 76 75 75 75 75 75 75 75 74 75 75 75 75 75 75 75 75 74 75 74 74 73 74 73 73 73 73 73
63 63 60 56 58 56 56 57 58 58 59 61 65 66 67 65 65 64 63 62 63 63 63 64 64 65 63 63 65 65 66 68 69 69 69 70 70 70 70 70 71 71 72 73 73 74 73 74 73 74 75 75 75 76 75 75 75 75 75 75 75 75 75 75 74 75 74 74 75 75 75 75 75 75 75 74 75 75 75 75 75 75 75 75 75 75 75 75 74 74 74 73 73 73 73 73 73
63 67 61 59 56 55 56 56 56 59 59 63 65 65 66 68 66 65 65 63 65 66 65 64 65 62 60 61 62 63 66 68 69 69 69 69 70 70 70 70 71 71 72 72 73 74 73 74 73 74 76 75 75 74 75 75 75 75 75 75 75 75 75 75 75 75 75 75 75 75 75 75 75 75 75 75 75 75 75 75 75 75 75 75 75 75 74 74 74 74 74 74 75 73 73 73 73
66 65 63 57 53 54 55 58 58 58 60 65 66 66 66 67 68 65 67 68 64 64 63 61 64 64 62 61 62 65 67 68 69 69 69 69 70 70 70 70 70 71 73 73 72 74 74 74 74 74 75 74 74 72 74 75 75 75 75 75 75 75 75 75 75 75 75 75 76 75 75 75 75 74 75 74 74 75 74 74 74 74 74 76 76 76 75 75 75 75 75 74 75 75 74 73 74
67 65 60 59 54 54 54 57 58 55 60 64 66 66 63 64 68 68 70 69 64 64 66 62 63 63 62 63 64 66 68 68 69 69 69 69 69 69 70 71 70 71 71 73 73 74 74 74 74 74 74 74 73 74 74 75 74 75 75 75 75 75 75 75 75 75 75 75 75 75 75 76 76 76 75 74 74 74 74 75 74 76 74 75 75 75 75 75 75 74 75 75 75 75 74 74 74
65 60 58 55 55 55 58 58 59 59 61 63 65 65 64 62 66 67 68 66 66 65 65 65 66 65 65 66 66 67 68 69 68 67 67 67 68 67 68 69 69 69 71 72 73 74 74 74 74 73 74 74 74 74 74 75 76 75 76 76 76 76 75 75 76 76 75 76 75 76 77 75 75 76 76 74 73 74 74 75 74 75 74 75 75 75 75 75 75 75 75 75 75 75 75 75 75
63 61 59 55 56 56 59 60 61 61 61 64 65 66 65 64 66 67 63 64 64 64 64 65 64 65 66 66 66 67 68 68 67 66 66 66 66 66 66 68 68 69 70 72 73 73 74 73 73 73 73 74 74 75 74 75 76 77 76 76 76 75 76 76 76 77 77 77 77 76 76 75 76 76 76 75 75 75 74 75 75 75 75 75 74 74 75 74 74 74 75 76 75 74 74 74 73
62 61 56 57 60 59 61 60 62 63 64 64 64 66 65 66 66 68 64 62 64 62 61 62 62 63 64 65 65 67 67 67 66 66 65 66 66 65 66 66 67 69 68 70 71 72 73 72 73 73 74 74 74 74 74 75 76 75 75 75 76 76 76 76 76 77 77 76 76 76 74 75 75 76 76 76 75 75 75 75 75 75 75 75 75 74 75 75 75 76 76 74 73 73 73 72 71
62 60 56 58 59 58 59 62 64 64 65 65 65 66 64 67 67 68 65 62 62 64 63 62 62 63 63 64 65 66 66 66 66 66 65 65 66 65 66 66 67 68 69 70 71 71 72 72 72 74 74 74 74 73 74 74 75 74 74 75 75 75 75 75 76 76 76 76 76 75 74 74 74 75 75 74 74 75 76 75 75 75 75 75 74 75 74 75 75 75 74 74 75 73 72 72 71
60 59 60 60 60 58 61 61 64 64 65 66 66 64 64 69 67 67 64 61 60 64 65 65 63 63 63 63 64 65 65 65 65 65 64 65 65 65 66 66 67 68 70 69 70 71 72 72 72 73 73 74 74 73 73 75 74 74 74 75 74 75 74 75 75 75 75 76 76 74 74 74 74 74 75 75 75 75 73 73 73 74 73 74 74 73 73 74 74 73 73 73 73 74 73 73 72
56 56 57 59 59 59 61 60 65 64 66 66 65 65 67 66 65 67 64 66 67 66 66 66 65 64 64 64 64 65 64 64 64 65 65 65 65 66 66 66 67 68 69 69 70 71 71 72 73 73 73 74 74 74 75 75 74 74 74 74 74 74 74 75 74 75 75 76 75 74 72 73 73 73 74 74 74 74 73 73 72 73 73 72 73 72 73 74 73 73 73 74 74 72 72 73 73
55 53 54 55 56 57 59 58 63 64 66 66 66 67 65 65 62 66 64 68 68 67 67 65 65 65 65 64 64 64 64 65 64 65 65 65 65 65 66 66 66 68 69 69 69 70 72 70 73 73 73 73 74 74 75 74 74 73 73 75 74 74 74 73 73 73 75 75 75 74 73 73 72 72 73 74 74 74 73 73 73 71 72 73 74 74 73 74 74 74 75 74 74 74 72 72 72
52 52 53 52 52 55 53 56 62 63 64 67 67 64 63 65 65 66 64 68 67 67 66 66 65 65 64 64 64 65 65 65 65 65 65 66 66 66 66 67 67 68 68 69 70 70 71 71 72 72 73 73 73 74 74 74 74 74 74 74 73 75 74 73 73 74 73 74 74 74 74 73 72 73 73 74 74 73 73 73 72 71 73 73 74 73 74 75 74 73 74 74 74 74 72 72 73
49 50 50 50 49 49 49 55 61 63 65 66 64 64 65 66 67 65 66 67 68 66 66 65 65 64 64 64 64 65 65 65 65 65 65 65 66 66 66 66 67 67 67 69 69 70 70 71 70 71 72 73 73 72 74 74 74 73 75 74 74 75 73 73 74 72 73 73 73 75 73 73 72 73 73 74 73 73 73 73 73 73 73 73 73 74 74 74 73 73 73 74 73 73 73 73 73
49 48 48 46 45 44 45 51 62 63 64 65 63 63 65 66 64 62 68 69 68 66 65 66 65 63 64 64 64 65 65 65 65 65 65 66 66 66 66 66 67 67 68 68 69 70 71 71 70 72 73 74 73 72 74 74 74 74 74 74 74 74 74 74 73 73 72 73 74 76 75 75 73 72 73 73 73 73 73 73 73 73 72 73 74 74 74 74 73 73 74 74 74 75 74 73 73
40 39 37 36 36 52 54 54 62 63 64 64 63 64 65 66 65 63 66 68 66 65 64 64 63 64 63 64 64 65 66 66 66 65 65 65 66 66 66 67 67 67 68 68 69 71 70 70 70 71 72 73 74 73 74 74 74 74 75 74 73 74 75 73 73 73 73 73 75 76 75 75 76 75 75 75 74 74 73 72 72 73 72 73 74 73 73 74 74 75 76 77 77 76 75 75 74
35 34 35 38 47 58 59 60 62 61 62 63 64 64 63 63 61 63 66 68 65 64 63 63 62 63 63 64 63 64 65 66 66 66 66 66 67 66 66 67 67 68 68 68 70 70 69 70 70 72 72 73 74 72 73 73 73 73 74 73 74 74 74 73 72 72 73 75 76 76 76 76 76 75 75 75 75 74 74 74 72 73 74 74 73 74 75 76 75 75 75 75 75 74 73 74 74
34 35 35 34 40 55 61 62 63 61 63 63 62 55 56 59 62 65 67 66 64 63 63 62 62 62 62 63 63 64 65 66 66 66 66 66 66 66 67 67 67 67 68 70 69 69 69 70 71 71 72 72 73 72 73 73 73 73 74 74 74 74 73 73 72 73 73 74 75 76 75 76 75 75 76 76 75 74 74 74 73 72 74 74 75 76 75 75 74 74 74 73 73 73 71 72 71
36 33 39 36 38 43 60 61 62 60 64 63 62 53 51 59 62 65 66 65 63 62 62 62 62 61 62 62 63 64 64 66 66 66 66 66 66 66 66 67 68 68 69 69 69 69 70 71 71 70 72 72 73 73 73 73 73 73 73 74 73 74 74 73 72 73 73 73 74 74 76 76 76 76 76 76 75 74 72 72 73 73 75 75 75 76 75 75 75 74 74 72 72 71 71 73 72
32 36 36 31 37 49 59 61 61 58 62 63 60 54 53 54 60 65 65 65 63 62 62 62 62 62 62 62 62 62 63 65 66 66 66 66 66 66 66 67 68 68 69 69 69 69 70 71 72 70 71 72 72 72 73 74 73 73 73 74 74 75 73 73 72 72 72 72 73 75 76 76 77 76 76 77 75 74 73 72 73 75 76 75 76 76 76 74 75 75 75 73 71 70 71 70 72
30 34 32 30 41 40 55 61 60 60 61 62 59 54 56 57 61 64 65 64 62 62 62 61 62 63 62 62 62 62 63 64 65 66 66 66 66 66 66 67 68 69 69 70 70 70 70 70 72 70 70 71 72 71 73 74 74 74 74 73 73 75 72 72 73 73 73 73 72 73 75 76 78 77 77 77 76 75 73 73 73 75 76 75 76 75 74 74 75 73 75 75 74 73 70 67 70
34 30 33 26 26 42 39 60 60 60 61 59 60 57 55 57 61 64 65 63 63 62 61 62 62 62 62 62 61 61 63 63 64 65 66 66 66 66 66 68 68 69 70 70 71 70 70 71 71 71 71 71 72 72 73 73 74 74 74 73 75 73 72 72 72 73 73 72 74 74 76 76 78 78 78 77 77 75 74 74 75 76 76 76 76 75 75 74 75 74 74 76 75 74 71 70 67
34 32 32 25 26 46 47 49 58 59 59 58 59 58 58 58 61 62 64 63 63 62 62 61 61 62 62 61 61 61 62 63 63 65 65 66 66 66 65 67 68 69 70 70 71 71 71 71 72 72 72 72 72 74 74 74 74 75 73 74 73 74 75 73 73 73 72 73 71 75 77 76 76 77 77 77 77 74 74 75 75 77 76 76 76 75 74 75 75 75 74 74 77 76 74 73 73
32 29 28 27 25 32 42 46 58 59 58 57 57 56 56 58 60 62 63 63 63 63 63 62 62 62 62 62 62 61 63 63 64 65 65 66 66 65 65 67 68 69 70 70 71 72 72 73 72 73 73 72 73 74 74 73 73 72 71 72 72 73 74 74 74 73 73 73 74 75 76 76 76 77 77 77 77 75 74 75 76 76 76 76 75 73 73 73 74 74 75 74 74 75 74 74 73
33 31 30 29 29 27 29 28 35 59 57 56 56 57 56 58 59 61 62 63 63 63 62 62 62 62 61 61 61 61 62 62 64 64 65 65 66 66 66 67 68 69 70 71 71 71 72 72 73 72 72 73 73 72 73 72 71 71 71 70 70 71 73 74 73 73 73 73 75 75 76 74 76 77 77 77 76 76 76 76 77 76 76 76 76 75 74 75 76 76 76 76 73 73 72 72 71
34 33 33 31 30 27 28 28 43 57 52 48 56 57 57 57 58 60 62 62 61 61 62 62 62 62 62 61 61 61 62 62 63 64 64 65 65 66 66 67 68 69 71 71 71 71 72 71 72 72 73 73 73 73 73 72 73 71 70 70 69 70 72 73 73 74 72 73 76 77 76 75 76 77 77 77 77 76 76 75 76 77 77 76 77 76 75 76 77 76 75 74 75 73 72 70 68
32 34 33 32 31 29 27 33 28 51 52 44 51 51 50 53 57 59 61 61 62 62 62 62 62 63 62 62 61 61 62 62 62 62 63 64 64 65 66 67 67 68 69 70 71 71 72 71 73 73 73 73 74 74 74 73 73 73 71 71 71 70 72 72 71 72 73 72 75 76 76 77 77 76 77 77 77 76 76 76 76 76 76 76 76 76 76 76 76 76 75 73 72 74 73 73 73
31 31 33 32 29 26 24 26 47 51 44 40 50 47 46 51 56 58 61 61 62 63 63 63 64 63 63 62 62 61 60 62 62 62 62 63 64 65 65 66 67 68 69 70 70 71 71 72 73 74 74 74 74 74 74 74 73 74 73 73 73 72 72 73 74 74 74 74 74 75 77 77 76 75 76 76 76 76 76 76 75 76 77 77 76 76 76 75 76 76 74 75 74 71 69 71 71
31 31 32 33 30 30 29 25 26 46 49 51 49 44 45 51 51 55 59 61 61 62 63 63 63 63 64 63 62 62 61 61 61 61 62 62 63 64 65 66 67 67 68 69 70 70 70 71 73 74 74 74 74 74 74 74 74 73 73 73 73 73 73 73 73 72 73 74 73 75 75 77 77 76 76 76 75 76 77 76 76 76 76 77 76 75 75 73 74 75 75 74 74 72 69 69 72
34 31 32 33 31 32 27 27 26 25 22 43 47 35 34 51 53 52 56 60 60 62 62 62 63 63 63 62 62 62 61 62 61 61 61 62 63 64 65 66 66 67 68 69 70 70 71 72 73 74 74 74 74 74 75 74 73 72 72 71 71 71 71 71 71 71 72 73 71 73 75 76 76 76 76 76 76 76 77 76 77 76 76 76 76 75 75 74 74 74 74 74 74 75 74 70 69
34 34 32 32 31 30 30 27 27 25 23 40 47 28 25 41 46 52 56 58 59 61 61 61 63 63 62 62 62 62 61 61 61 61 61 61 63 63 64 65 65 66 67 68 69 70 71 72 73 73 74 74 74 74 75 74 73 73 72 71 71 71 71 71 73 72 72 73 73 75 75 76 77 75 75 76 76 76 77 77 77 76 75 76 76 76 75 73 72 74 74 74 74 76 75 72 71
33 32 31 31 30 30 29 29 28 28 28 26 43 37 31 29 39 51 56 57 58 60 60 61 61 63 62 62 61 62 61 61 61 61 61 61 63 63 64 64 65 65 66 67 69 70 72 73 73 73 74 74 74 74 74 74 73 73 72 72 71 71 69 71 74 74 74 75 75 75 75 75 77 77 76 77 77 76 77 77 77 76 76 75 76 75 75 74 75 76 76 76 75 76 76 73 71
33 32 30 29 29 29 29 29 28 25 24 26 33 45 37 40 41 55 57 56 57 58 59 61 61 62 62 62 61 62 61 61 61 60 60 61 62 62 63 64 64 65 65 67 68 70 71 72 73 73 73 74 74 74 74 73 73 73 72 71 71 71 71 72 73 74 74 75 75 76 77 75 77 77 76 76 77 76 77 76 77 77 76 76 76 75 75 74 76 77 77 76 75 75 76 75 74
32 30 28 28 28 27 28 27 26 28 26 23 32 40 31 29 39 53 58 56 55 56 58 59 61 62 62 62 62 62 62 62 61 61 61 61 61 62 63 63 64 64 65 67 68 69 70 72 73 73 73 73 73 74 74 74 73 73 72 72 72 71 71 72 72 73 74 76 75 76 77 77 75 75 76 76 77 77 76 77 76 76 76 74 75 75 76 76 76 77 77 76 76 75 76 76 74
31 27 27 25 24 26 28 25 29 32 26 26 24 37 30 21 41 52 53 46 47 46 52 59 61 61 62 62 62 62 62 62 62 62 61 61 61 62 63 63 64 64 65 66 67 68 69 71 72 73 73 73 73 73 74 73 73 73 72 72 72 72 71 72 72 73 74 75 75 75 76 76 76 75 75 76 76 76 77 77 75 75 75 76 76 76 76 75 75 76 76 77 77 76 76 76 75
29 28 28 27 27 28 30 28 32 24 22 30 25 36 37 21 39 44 47 49 50 52 51 51 57 61 61 62 62 62 62 62 62 62 61 62 62 62 62 63 64 65 65 66 66 68 69 70 71 72 73 73 73 73 73 72 72 72 73 73 72 72 72 71 72 72 73 74 74 74 76 76 76 76 76 75 75 74 77 76 77 76 77 76 76 76 76 76 75 75 76 77 77 77 77 76 74
28 26 27 24 27 24 23 24 22 22 21 24 26 39 35 34 42 42 44 48 52 53 53 53 53 53 60 61 62 62 62 62 62 62 62 62 62 62 62 63 65 66 66 67 66 66 68 70 71 72 73 73 73 72 72 73 72 72 72 72 72 72 72 72 72 72 73 73 74 74 76 75 76 76 75 74 75 76 77 77 77 77 77 77 78 78 78 78 78 76 77 76 76 77 76 76 75
27 27 27 26 23 21 21 22 25 23 22 19 29 37 34 37 40 43 43 47 52 53 54 54 55 56 56 60 62 62 62 62 62 62 62 63 63 62 62 63 65 66 65 66 66 67 68 69 71 71 72 73 73 72 72 72 72 73 73 72 72 72 72 71 71 71 72 73 74 74 73 73 75 75 75 76 75 76 76 76 77 77 78 78 79 79 78 78 79 77 77 77 75 77 77 77 76
25 26 24 25 26 20 21 20 18 17 21 20 27 29 33 28 37 42 46 47 53 53 53 55 56 56 57 58 61 62 61 62 62 63 62 63 63 64 62 63 64 65 64 65 66 68 69 69 70 71 72 72 73 72 72 72 72 72 73 72 72 72 71 70 71 71 72 73 72 73 75 73 74 75 76 77 77 77 77 77 77 77 78 78 78 78 77 78 79 78 78 78 77 76 77 76 76
20 21 24 24 22 28 17 22 19 20 18 21 33 29 26 35 39 48 52 52 53 53 54 54 55 56 57 58 60 61 61 61 61 62 62 63 64 65 63 63 63 64 65 65 65 67 68 69 71 71 72 72 72 73 72 72 72 72 73 72 72 72 72 71 72 73 73 73 74 74 75 76 75 75 77 77 77 77 77 77 77 76 78 77 78 78 78 76 78 77 78 77 77 75 77 77 76
19 20 21 21 21 22 29 27 23 22 21 20 32 24 32 34 34 46 51 52 51 52 53 53 54 55 57 57 58 60 61 61 61 61 62 64 64 65 65 63 62 63 64 64 67 68 68 69 69 70 71 71 72 72 72 72 72 72 72 72 71 71 71 70 69 70 68 71 74 74 74 74 75 76 75 76 76 77 77 77 76 75 77 77 77 78 77 78 78 77 75 78 76 74 77 77 76
19 18 19 20 23 21 26 17 26 20 14 20 23 29 33 33 25 47 51 51 50 51 52 53 54 55 55 56 57 59 60 61 61 62 63 63 64 64 64 63 62 62 63 64 67 67 68 68 68 69 70 71 71 71 71 71 72 72 72 72 72 71 70 69 69 69 69 71 73 74 73 74 74 73 74 73 75 76 77 77 76 76 76 76 76 76 77 77 78 76 76 77 75 77 77 77 77
18 17 19 18 20 21 29 28 18 17 16 20 31 33 37 42 42 48 50 50 50 51 51 52 53 54 55 55 56 58 59 60 61 61 62 62 63 63 65 64 63 62 64 64 65 65 66 67 67 67 68 69 69 69 70 71 71 70 71 71 71 71 70 70 69 71 71 70 69 70 71 72 73 74 75 76 76 74 75 76 77 76 76 76 77 76 77 77 78 76 76 75 76 78 76 76 77
17 19 16 17 22 32 24 25 27 26 23 24 28 33 33 43 42 48 50 51 51 51 49 50 51 53 55 55 56 57 58 60 60 61 61 62 62 62 63 63 63 62 63 63 63 63 64 65 66 67 67 69 69 69 70 71 70 70 70 71 72 72 72 71 71 71 69 69 69 69 70 70 72 72 73 74 74 74 74 74 74 74 73 74 75 75 75 76 77 76 75 73 74 77 76 76 74
15 16 16 17 20 20 23 24 25 23 25 24 28 28 36 43 48 50 50 51 51 51 50 49 50 51 53 55 55 57 58 59 61 61 61 61 62 62 62 63 63 62 63 63 62 62 63 63 64 65 67 67 67 68 69 70 70 70 71 71 70 71 70 70 70 70 70 70 70 70 69 69 72 72 73 73 74 74 75 74 73 74 73 75 76 75 76 76 77 77 77 76 76 77 76 75 76
14 13 13 14 17 23 21 22 22 24 26 24 27 30 38 41 49 50 49 50 51 50 51 49 49 50 52 54 55 57 58 59 61 60 61 61 62 62 62 63 63 62 62 62 62 63 63 64 63 64 65 66 66 67 69 70 70 70 70 70 70 70 70 70 69 69 69 69 69 69 70 70 70 71 72 71 73 73 74 74 73 74 75 74 76 77 75 75 76 76 76 74 75 77 77 76 76